CW5619 Weather Reports


Display with metric or nautical units.
time (UTC)temp
F
wind
direction
speed
MPH
gust
MPH
rain 1hr
in
rain 24hr
in
rain mn
in
humidity
%
barometer
mb
20240616182904 83 219 2.0 6.0 0.00 0.00 0.00 21 1007.9
20240616181404 83 203 1.0 3.0 0.00 0.00 0.00 21 1008.2
20240616180905 83 235 2.0 3.0 0.00 0.00 0.00 21 1008.2
20240616180404 83 322 1.0 3.0 0.00 0.00 0.00 21 1008.3
20240616175905 83 45 1.0 5.0 0.00 0.00 0.00 21 1008.3
20240616175404 83 73 1.0 5.0 0.00 0.00 0.00 21 1008.4
20240616174904 83 55 3.0 3.0 0.00 0.00 0.00 21 1008.5
20240616174404 83 66 2.0 6.0 0.00 0.00 0.00 21 1008.5
20240616173904 83 95 2.0 6.0 0.00 0.00 0.00 21 1008.6
20240616173404 83 118 1.0 3.0 0.00 0.00 0.00 21 1008.6
20240616172904 83 174 1.0 5.0 0.00 0.00 0.00 21 1008.6
20240616172404 83 194 2.0 5.0 0.00 0.00 0.00 21 1008.7
20240616171404 83 126 1.0 3.0 0.00 0.00 0.00 21 1008.6
20240616170404 83 280 1.0 3.0 0.00 0.00 0.00 21 1008.7
20240616165904 83 182 1.0 5.0 0.00 0.00 0.00 21 1008.8
20240616165404 83 166 1.0 5.0 0.00 0.00 0.00 21 1008.8
20240616164904 83 205 2.0 5.0 0.00 0.00 0.00 21 1008.9
20240616163903 83 130 2.0 3.0 0.00 0.00 0.00 21 1009.0
20240616162904 83 157 1.0 6.0 0.00 0.00 0.00 21 1009.0
20240616162404 83 184 2.0 6.0 0.00 0.00 0.00 21 1009.0
20240616161904 83 128 2.0 6.0 0.00 0.00 0.00 21 1009.1
20240616161404 83 142 1.0 6.0 0.00 0.00 0.00 21 1009.1
20240616160903 83 181 1.0 6.0 0.00 0.00 0.00 21 1009.0
20240616160404 83 103 2.0 7.0 0.00 0.00 0.00 21 1009.0
20240616155904 83 204 1.0 7.0 0.00 0.00 0.00 21 1009.1
20240616155404 83 157 1.0 6.0 0.00 0.00 0.00 21 1009.1
20240616154904 83 141 2.0 6.0 0.00 0.00 0.00 21 1009.2
20240616154405 83 186 1.0 8.0 0.00 0.00 0.00 21 1009.1
20240616153905 83 117 1.0 8.0 0.00 0.00 0.00 21 1009.1
20240616153403 83 157 2.0 8.0 0.00 0.00 0.00 21 1009.2
20240616152904 83 112 1.0 6.0 0.00 0.00 0.00 21 1009.3
20240616152404 83 178 2.0 6.0 0.00 0.00 0.00 21 1009.4
20240616151904 83 323 1.0 7.0 0.00 0.00 0.00 21 1009.3
20240616151403 83 293 1.0 7.0 0.00 0.00 0.00 21 1009.3
20240616150403 83 118 1.0 5.0 0.00 0.00 0.00 21 1009.4
20240616145904 83 100 2.0 5.0 0.00 0.00 0.00 21 1009.4
20240616145405 83 155 1.0 5.0 0.00 0.00 0.00 21 1009.3
20240616144904 83 119 2.0 5.0 0.00 0.00 0.00 21 1009.3
20240616144403 83 131 1.0 3.0 0.00 0.00 0.00 21 1009.3
20240616143904 83 327 2.0 3.0 0.00 0.00 0.00 21 1009.2
20240616143404 83 118 1.0 3.0 0.00 0.00 0.00 21 1009.2
20240616142904 83 171 1.0 3.0 0.00 0.00 0.00 21 1009.2
20240616141404 83 136 2.0 6.0 0.00 0.00 0.00 21 1009.2
20240616140904 83 151 1.0 3.0 0.00 0.00 0.00 21 1009.2
20240616140404 83 144 0.0 3.0 0.00 0.00 0.00 21 1009.2
20240616135905 83 121 0.0 2.0 0.00 0.00 0.00 21 1009.2
20240616135404 83 85 0.0 2.0 0.00 0.00 0.00 21 1009.2
20240616134904 83 54 0.0 2.0 0.00 0.00 0.00 21 1009.2
20240616134403 83 52 1.0 2.0 0.00 0.00 0.00 21 1009.1
20240616133904 83 58 0.0 2.0 0.00 0.00 0.00 21 1009.1
20240616132904 83 55 1.0 2.0 0.00 0.00 0.00 21 1009.0
20240616131904 83 63 0.0 2.0 0.00 0.00 0.00 21 1009.1
20240616131404 83 63 0.0 2.0 0.00 0.00 0.00 21 1009.1
20240616130904 83 97 0.0 2.0 0.00 0.00 0.00 21 1009.0
20240616130404 83 97 0.0 3.0 0.00 0.00 0.00 21 1009.0
20240616124904 83 82 0.0 2.0 0.00 0.00 0.00 21 1008.9
20240616123903 83 97 0.0 2.0 0.00 0.00 0.00 21 1008.8
20240616123404 83 93 0.0 2.0 0.00 0.00 0.00 21 1008.8
20240616121904 83 88 0.0 2.0 0.00 0.00 0.00 21 1008.5
20240616121403 83 92 0.0 1.0 0.00 0.00 0.00 21 1008.5
20240616120904 83 92 0.0 0.0 0.00 0.00 0.00 21 1008.6
20240616115905 83 55 0.0 1.0 0.00 0.00 0.00 21 1008.6
20240616115404 83 62 0.0 1.0 0.00 0.00 0.00 21 1008.5
20240616114905 83 71 1.0 1.0 0.00 0.00 0.00 21 1008.6
20240616114403 83 70 0.0 3.0 0.00 0.00 0.00 21 1008.5
20240616113904 83 70 1.0 3.0 0.00 0.00 0.00 21 1008.5
20240616113404 83 70 1.0 2.0 0.00 0.00 0.00 21 1008.5
20240616112903 83 86 1.0 2.0 0.00 0.00 0.00 21 1008.3
20240616112404 83 79 1.0 2.0 0.00 0.00 0.00 21 1008.3
20240616111904 83 92 0.0 2.0 0.00 0.00 0.00 21 1008.3
20240616111405 83 86 1.0 2.0 0.00 0.00 0.00 21 1008.2
20240616110404 83 70 1.0 2.0 0.00 0.00 0.00 21 1008.3
20240616105904 83 67 0.0 0.0 0.00 0.00 0.00 21 1008.2
20240616105404 83 67 0.0 2.0 0.00 0.00 0.00 21 1008.1
20240616104904 83 67 0.0 2.0 0.00 0.00 0.00 21 1008.2
20240616104404 83 67 1.0 1.0 0.00 0.00 0.00 21 1008.1
20240616103904 83 67 1.0 1.0 0.00 0.00 0.00 21 1008.1
20240616102403 83 67 0.0 0.0 0.00 0.00 0.00 21 1008.1
20240616101904 83 67 0.0 2.0 0.00 0.00 0.00 21 1008.1
20240616101404 83 67 0.0 2.0 0.00 0.00 0.00 21 1008.1
20240616100904 83 67 1.0 2.0 0.00 0.00 0.00 21 1008.0
20240616095904 83 67 0.0 0.0 0.00 0.00 0.00 21 1008.0
20240616095404 83 67 0.0 2.0 0.00 0.00 0.00 21 1008.1
20240616094904 83 67 0.0 2.0 0.00 0.00 0.00 21 1008.1
20240616094404 83 67 1.0 2.0 0.00 0.00 0.00 21 1008.1
20240616093904 83 67 1.0 2.0 0.00 0.00 0.00 21 1008.1
20240616093403 83 65 0.0 1.0 0.00 0.00 0.00 21 1008.1
20240616092904 83 65 0.0 2.0 0.00 0.00 0.00 21 1008.1
20240616092403 83 63 1.0 2.0 0.00 0.00 0.00 21 1008.1
20240616091904 83 65 1.0 2.0 0.00 0.00 0.00 21 1008.1
20240616090905 83 124 0.0 2.0 0.00 0.00 0.00 21 1008.1
20240616090404 83 124 0.0 1.0 0.00 0.00 0.00 21 1008.1
20240616085404 83 124 0.0 2.0 0.00 0.00 0.00 21 1008.1
20240616084904 83 124 0.0 2.0 0.00 0.00 0.00 21 1008.1
20240616083904 83 72 0.0 1.0 0.00 0.00 0.00 21 1008.1
20240616083404 83 72 0.0 1.0 0.00 0.00 0.00 21 1008.1
20240616082903 83 72 0.0 1.0 0.00 0.00 0.00 21 1008.1
20240616081403 83 64 0.0 2.0 0.00 0.00 0.00 21 1008.1
20240616080904 83 57 1.0 2.0 0.00 0.00 0.00 21 1008.0
20240616080404 83 30 1.0 2.0 0.00 0.00 0.00 21 1008.1
20240616075904 83 49 0.0 2.0 0.00 0.00 0.00 21 1008.1
20240616075404 83 49 0.0 2.0 0.00 0.00 0.00 21 1008.1
20240616074904 83 49 1.0 2.0 0.00 0.00 0.00 21 1008.1
20240616074403 83 49 1.0 2.0 0.00 0.00 0.00 21 1008.2
20240616073904 83 51 0.0 0.0 0.00 0.00 0.00 21 1008.2
20240616073404 83 51 0.0 1.0 0.00 0.00 0.00 21 1008.2
20240616072904 83 51 0.0 1.0 0.00 0.00 0.00 21 1008.3
20240616072404 83 51 0.0 2.0 0.00 0.00 0.00 21 1008.3
20240616071904 83 51 1.0 2.0 0.00 0.00 0.00 21 1008.4
20240616071403 83 51 0.0 3.0 0.00 0.00 0.00 21 1008.4
20240616070904 83 69 1.0 3.0 0.00 0.00 0.00 21 1008.4
20240616070404 83 53 1.0 3.0 0.00 0.00 0.00 21 1008.4
20240616065904 83 72 1.0 2.0 0.00 0.00 0.00 21 1008.5
20240616065404 83 5 1.0 2.0 0.00 0.00 0.00 21 1008.5
20240616064903 83 355 1.0 1.0 0.00 0.00 0.00 21 1008.5
20240616064404 83 338 0.0 3.0 0.00 0.00 0.00 21 1008.5
20240616063403 83 336 0.0 1.0 0.00 0.00 0.00 21 1008.6
20240616062404 83 11 0.0 3.0 0.00 0.00 0.00 21 1008.5
20240616061904 83 216 0.0 3.0 0.00 0.00 0.00 21 1008.5
20240616061403 83 257 1.0 3.0 0.00 0.00 0.00 21 1008.5
20240616060404 83 332 1.0 3.0 0.00 0.00 0.00 21 1008.5
20240616055905 83 337 1.0 3.0 0.00 0.00 0.00 21 1008.5
20240616055404 83 333 1.0 3.0 0.00 0.00 0.00 21 1008.5
20240616054404 83 235 1.0 3.0 0.00 0.00 0.00 21 1008.4
20240616053904 83 343 1.0 3.0 0.00 0.00 0.00 21 1008.4
20240616052404 83 25 0.0 3.0 0.00 0.00 0.00 21 1008.2
20240616051904 83 271 1.0 9.0 0.00 0.00 0.00 21 1008.2
20240616051404 83 241 2.0 9.0 0.00 0.00 0.00 21 1008.1
20240616050904 83 236 2.0 7.0 0.00 0.00 0.00 21 1008.1
20240616050404 83 237 3.0 8.0 0.00 0.00 0.00 21 1008.0
20240616045903 83 223 1.0 8.0 0.00 0.00 0.00 21 1007.9
20240616045404 83 240 4.0 8.0 0.00 0.00 0.00 21 1007.8
20240616043904 83 219 3.0 9.0 0.00 0.00 0.00 21 1007.7
20240616043404 83 233 2.0 10.0 0.00 0.00 0.00 21 1007.6
20240616042904 83 237 3.0 10.0 0.00 0.00 0.00 21 1007.6
20240616042404 83 253 5.0 12.0 0.00 0.00 0.00 21 1007.5
20240616041904 83 240 3.0 12.0 0.00 0.00 0.00 21 1007.4
20240616041404 83 240 3.0 9.0 0.00 0.00 0.00 21 1007.3
20240616040903 83 227 3.0 9.0 0.00 0.00 0.00 21 1007.1
20240616040405 83 257 2.0 7.0 0.00 0.00 0.00 21 1006.9
20240616035904 83 232 1.0 3.0 0.00 0.00 0.00 21 1006.9
20240616035404 83 226 1.0 2.0 0.00 0.00 0.00 21 1006.8
20240616034904 83 35 0.0 2.0 0.00 0.00 0.00 21 1006.6
20240616034404 83 35 0.0 2.0 0.00 0.00 0.00 21 1006.4
20240616033904 83 35 1.0 2.0 0.00 0.00 0.00 21 1006.2
20240616032904 83 30 0.0 2.0 0.00 0.00 0.00 21 1006.2
20240616032404 83 30 0.0 2.0 0.00 0.00 0.00 21 1006.1
20240616031904 83 5 1.0 2.0 0.00 0.00 0.00 21 1006.1
20240616031404 83 5 0.0 2.0 0.00 0.00 0.00 21 1006.1
20240616030903 83 5 0.0 2.0 0.00 0.00 0.00 21 1006.1
20240616030403 83 5 0.0 1.0 0.00 0.00 0.00 21 1006.1
20240616025904 83 5 0.0 1.0 0.00 0.00 0.00 21 1006.1
20240616025403 83 354 0.0 1.0 0.00 0.00 0.00 21 1006.1
20240616024403 83 351 0.0 2.0 0.00 0.00 0.00 21 1006.0
20240616023904 83 349 0.0 2.0 0.00 0.00 0.00 21 1006.0
20240616022903 83 8 1.0 3.0 0.00 0.00 0.00 21 1006.0
20240616022404 83 347 1.0 3.0 0.00 0.00 0.00 21 1006.0
20240616021904 83 354 1.0 3.0 0.00 0.00 0.00 21 1005.9
20240616021404 83 27 1.0 3.0 0.00 0.00 0.00 21 1005.9
20240616020905 83 19 1.0 3.0 0.00 0.00 0.00 21 1005.9
20240616020404 83 353 1.0 5.0 0.00 0.00 0.00 21 1006.0
20240616015904 83 6 3.0 6.0 0.00 0.00 0.00 21 1005.9
20240616014904 83 297 1.0 3.0 0.00 0.00 0.00 21 1006.0
20240616014403 83 2 1.0 7.0 0.00 0.00 0.00 21 1006.0
20240616013904 83 324 2.0 7.0 0.00 0.00 0.00 21 1006.1
20240616013404 83 338 2.0 7.0 0.00 0.00 0.00 21 1006.0
20240616012904 83 332 2.0 3.0 0.00 0.00 0.00 21 1006.0
20240616012404 83 118 1.0 6.0 0.00 0.00 0.00 21 1006.0
20240616011905 83 339 2.0 6.0 0.00 0.00 0.00 21 1006.0
20240616011404 83 333 1.0 6.0 0.00 0.00 0.00 21 1006.1
20240616010904 83 245 2.0 6.0 0.00 0.00 0.00 21 1006.0
20240616005904 83 316 0.0 8.0 0.00 0.00 0.00 21 1006.1
20240616005403 83 44 4.0 8.0 0.00 0.00 0.00 21 1006.1
20240616004904 83 194 2.0 6.0 0.00 0.00 0.00 21 1006.1
20240616004404 83 332 2.0 5.0 0.00 0.00 0.00 21 1006.1
20240616003904 83 294 2.0 5.0 0.00 0.00 0.00 21 1006.1
20240616003404 83 350 2.0 8.0 0.00 0.00 0.00 21 1006.2
20240616002904 83 147 2.0 8.0 0.00 0.00 0.00 21 1006.1
20240616001904 83 169 2.0 8.0 0.00 0.00 0.00 21 1006.1
20240616001404 83 168 2.0 8.0 0.00 0.00 0.00 21 1006.1
20240616000404 83 251 2.0 9.0 0.00 0.00 0.00 21 1006.1
20240615235903 83 328 2.0 9.0 0.00 0.00 0.00 21 1006.1
20240615234904 83 308 2.0 10.0 0.00 0.00 0.00 21 1006.2
20240615234404 83 22 3.0 10.0 0.00 0.00 0.00 21 1006.2
20240615233904 83 235 2.0 8.0 0.00 0.00 0.00 21 1006.3
20240615233404 83 196 2.0 8.0 0.00 0.00 0.00 21 1006.4
20240615232904 83 230 2.0 7.0 0.00 0.00 0.00 21 1006.4
20240615232404 83 236 2.0 7.0 0.00 0.00 0.00 21 1006.5
20240615231905 83 205 2.0 6.0 0.00 0.00 0.00 21 1006.4
20240615231404 83 170 2.0 8.0 0.00 0.00 0.00 21 1006.5
20240615230904 83 273 3.0 8.0 0.00 0.00 0.00 21 1006.6
20240615230404 83 173 1.0 9.0 0.00 0.00 0.00 21 1006.6
20240615225403 83 12 3.0 10.0 0.00 0.00 0.00 21 1006.7
20240615224903 83 223 4.0 10.0 0.00 0.00 0.00 21 1006.8
20240615224404 83 228 4.0 8.0 0.00 0.00 0.00 21 1006.8
20240615223904 83 320 1.0 8.0 0.00 0.00 0.00 21 1006.8
20240615223404 83 213 2.0 8.0 0.00 0.00 0.00 21 1006.8
20240615222904 83 234 3.0 8.0 0.00 0.00 0.00 21 1006.9
20240615222403 83 224 2.0 8.0 0.00 0.00 0.00 21 1007.0
20240615221905 83 233 2.0 8.0 0.00 0.00 0.00 21 1007.0
20240615220904 83 346 2.0 8.0 0.00 0.00 0.00 21 1007.2
20240615220404 83 327 2.0 8.0 0.00 0.00 0.00 21 1007.3
20240615215905 83 247 2.0 7.0 0.00 0.00 0.00 21 1007.4
20240615215404 83 216 2.0 5.0 0.00 0.00 0.00 21 1007.4
20240615214904 83 228 2.0 6.0 0.00 0.00 0.00 21 1007.5
20240615214404 83 352 2.0 9.0 0.00 0.00 0.00 21 1007.5
20240615213905 83 217 3.0 9.0 0.00 0.00 0.00 21 1007.6
20240615213405 83 322 2.0 6.0 0.00 0.00 0.00 21 1007.7
20240615212905 83 181 3.0 7.0 0.00 0.00 0.00 21 1007.8
20240615212404 83 223 3.0 7.0 0.00 0.00 0.00 21 1007.7
20240615211905 83 324 2.0 5.0 0.00 0.00 0.00 21 1007.8
20240615211404 83 244 1.0 10.0 0.00 0.00 0.00 21 1007.9
20240615210904 83 51 3.0 10.0 0.00 0.00 0.00 21 1007.9
20240615210404 83 39 3.0 9.0 0.00 0.00 0.00 21 1008.1
20240615205903 83 39 3.0 9.0 0.00 0.00 0.00 21 1008.1
20240615204404 83 229 3.0 9.0 0.00 0.00 0.00 21 1008.3
20240615203904 83 14 2.0 5.0 0.00 0.00 0.00 21 1008.4
20240615203404 83 16 1.0 7.0 0.00 0.00 0.00 21 1008.5
20240615202904 83 231 1.0 9.0 0.00 0.00 0.00 21 1008.5
20240615202404 83 231 3.0 9.0 0.00 0.00 0.00 21 1008.6
20240615201404 83 294 2.0 7.0 0.00 0.00 0.00 21 1008.7
20240615200904 83 256 2.0 6.0 0.00 0.00 0.00 21 1008.7
20240615200404 83 218 2.0 9.0 0.00 0.00 0.00 21 1008.9
20240615195403 83 3 2.0 5.0 0.00 0.00 0.00 21 1008.9
20240615194904 83 159 2.0 5.0 0.00 0.00 0.00 21 1009.0
20240615194404 83 258 2.0 5.0 0.00 0.00 0.00 21 1009.1
20240615193904 83 31 2.0 6.0 0.00 0.00 0.00 21 1009.1
20240615193404 83 221 2.0 6.0 0.00 0.00 0.00 21 1009.2
20240615192904 83 226 2.0 5.0 0.00 0.00 0.00 21 1009.3
20240615192404 83 229 2.0 7.0 0.00 0.00 0.00 21 1009.4
20240615191904 83 220 2.0 7.0 0.00 0.00 0.00 21 1009.4
20240615191403 83 227 1.0 7.0 0.00 0.00 0.00 21 1009.4
20240615190904 83 44 1.0 7.0 0.00 0.00 0.00 21 1009.6
20240615185904 83 224 1.0 5.0 0.00 0.00 0.00 21 1009.8
20240615185404 83 218 1.0 5.0 0.00 0.00 0.00 21 1009.8
20240615184404 83 141 1.0 3.0 0.00 0.00 0.00 21 1009.9
20240615183904 83 43 2.0 7.0 0.00 0.00 0.00 21 1010.0